Location: Mexico
(19.4000°N, 99.1500°W)
Time: 09:43:42
(UTC-06:00)

ISS - Pass Details

Date: 19 January 2018
Orbit: 402 x 407 km, 51.6° (Epoch: 23 January)

Event Time Altitude Azimuth Distance (km) Brightness Sun altitude
Rises 19:11:52 0° 184° (S) 2,296 0.3 -12.0°
Reaches altitude 10° 19:14:41 10° 157° (SSE) 1,440 -1.1 -12.7°
Maximum altitude 19:16:25 14° 124° (SE) 1,240 -1.7 -13.1°
Enters shadow 19:16:34 14° 121° (ESE) 1,242 -1.8 -13.1°
